• In Hungary
  • List of Countries
  • For 7 days
  • Water Temperature
  • Satellite Maps
  • Weather Map
  • News
  • Weather Widgets
  • user-avatar
    Login

    Hourly Weather Malaya Rechka

    Today, 26 May, Saturday

    Time Temperature Precipitation Wind Pressure Humidity
    00:00 +3°C° 0 mm 3 mps 760 mmHg 55%
    01:00 +3°C° 0 mm 3 mps 761 mmHg 57%
    02:00 +2°C° 0 mm 3 mps 761 mmHg 59%
    03:00 +2°C° 0 mm 2 mps 762 mmHg 64%
    04:00 +2°C° 0 mm 3 mps 762 mmHg 60%
    05:00 +3°C° 0 mm 3 mps 763 mmHg 56%
    06:00 +5°C° 0 mm 4 mps 763 mmHg 52%
    07:00 +6°C° 0 mm 4 mps 763 mmHg 48%
    08:00 +8°C° 0 mm 4 mps 763 mmHg 44%
    09:00 +10°C° 0 mm 4 mps 764 mmHg 40%
    10:00 +11°C° 0 mm 4 mps 764 mmHg 39%
    11:00 +12°C° 0 mm 4 mps 763 mmHg 38%
    12:00 +14°C° 0 mm 3 mps 763 mmHg 36%
    13:00 +14°C° 0 mm 3 mps 763 mmHg 36%
    14:00 +16°C° 0 mm 3 mps 763 mmHg 36%
    15:00 +17°C° 0 mm 3 mps 762 mmHg 36%
    16:00 +17°C° 0 mm 3 mps 762 mmHg 39%
    17:00 +16°C° 0 mm 2 mps 762 mmHg 42%
    18:00 +16°C° 0 mm 2 mps 761 mmHg 45%
    19:00 +14°C° 0 mm 2 mps 761 mmHg 49%
    20:00 +12°C° 0 mm 2 mps 761 mmHg 53%
    21:00 +10°C° 0 mm 3 mps 761 mmHg 57%
    22:00 +9°C° 0 mm 3 mps 760 mmHg 58%
    23:00 +9°C° 0 mm 3 mps 760 mmHg 60%

    Tomorrow, 27 May, Sunday

    Time Temperature Precipitation Wind Pressure Humidity
    00:00 +9°C° 0 mm 3 mps 760 mmHg 62%
    01:00 +8°C° 0 mm 4 mps 760 mmHg 62%
    02:00 +8°C° 0 mm 4 mps 759 mmHg 62%
    03:00 +8°C° 0 mm 4 mps 759 mmHg 62%
    04:00 +9°C° 0 mm 5 mps 758 mmHg 63%
    05:00 +10°C° 0 mm 5 mps 758 mmHg 63%
    06:00 +11°C° 0 mm 6 mps 757 mmHg 64%
    07:00 +14°C° 0 mm 6 mps 757 mmHg 60%
    08:00 +16°C° 0 mm 7 mps 756 mmHg 56%
    09:00 +18°C° 0 mm 7 mps 755 mmHg 51%
    10:00 +20°C° 0 mm 7 mps 755 mmHg 48%
    11:00 +21°C° 0 mm 8 mps 754 mmHg 46%
    12:00 +22°C° 0 mm 8 mps 753 mmHg 43%
    13:00 +22°C° 0.3 mm 8 mps 753 mmHg 48%
    14:00 +21°C° 0.3 mm 7 mps 752 mmHg 52%
    15:00 +20°C° 0.3 mm 6 mps 752 mmHg 57%
    16:00 +17°C° 2.3 mm 5 mps 751 mmHg 69%
    17:00 +15°C° 2.3 mm 5 mps 751 mmHg 81%
    18:00 +13°C° 2.3 mm 4 mps 750 mmHg 93%
    19:00 +12°C° 1.4 mm 4 mps 751 mmHg 93%
    20:00 +11°C° 1.4 mm 3 mps 751 mmHg 92%
    21:00 +10°C° 1.4 mm 3 mps 751 mmHg 92%
    22:00 +9°C° 0.1 mm 3 mps 751 mmHg 90%
    23:00 +9°C° 0.1 mm 3 mps 752 mmHg 88%

    Day after tomorrow, 28 May, Monday

    Time Temperature Precipitation Wind Pressure Humidity
    00:00 +7°C° 0.1 mm 4 mps 752 mmHg 86%
    01:00 +6°C° 0 mm 4 mps 753 mmHg 85%
    02:00 +5°C° 0 mm 4 mps 754 mmHg 84%
    03:00 +4°C° 0 mm 4 mps 754 mmHg 83%
    04:00 +3°C° 0 mm 5 mps 755 mmHg 80%
    05:00 +5°C° 0 mm 5 mps 755 mmHg 76%
    06:00 +4°C° 0 mm 6 mps 755 mmHg 73%
    07:00 +5°C° 0 mm 6 mps 756 mmHg 65%
    08:00 +7°C° 0 mm 6 mps 756 mmHg 58%
    09:00 +8°C° 0 mm 7 mps 756 mmHg 50%
    10:00 +8°C° 0 mm 7 mps 756 mmHg 48%
    11:00 +9°C° 0 mm 7 mps 756 mmHg 46%
    12:00 +9°C° 0 mm 7 mps 757 mmHg 44%
    13:00 +10°C° 0 mm 7 mps 757 mmHg 43%
    14:00 +10°C° 0 mm 7 mps 757 mmHg 42%
    15:00 +10°C° 0 mm 6 mps 757 mmHg 42%
    16:00 +10°C° 0 mm 6 mps 757 mmHg 44%
    17:00 +10°C° 0 mm 5 mps 757 mmHg 46%
    18:00 +11°C° 0 mm 4 mps 757 mmHg 49%
    19:00 +10°C° 0 mm 3 mps 757 mmHg 53%
    20:00 +8°C° 0 mm 3 mps 757 mmHg 57%
    21:00 +7°C° 0 mm 2 mps 758 mmHg 61%
    22:00 +5°C° 0 mm 3 mps 757 mmHg 63%
    23:00 +5°C° 0 mm 3 mps 757 mmHg 65%

    29 May, Tuesday

    Time Temperature Precipitation Wind Pressure Humidity
    00:00 +4°C° 0 mm 3 mps 757 mmHg 67%
    01:00 +4°C° 0.2 mm 3 mps 756 mmHg 71%
    02:00 +5°C° 0.2 mm 3 mps 756 mmHg 75%
    03:00 +5°C° 0.2 mm 3 mps 756 mmHg 80%
    04:00 +7°C° 0.2 mm 3 mps 755 mmHg 79%
    05:00 +7°C° 0.2 mm 4 mps 755 mmHg 78%
    06:00 +8°C° 0.2 mm 5 mps 754 mmHg 78%
    07:00 +9°C° 0.1 mm 5 mps 754 mmHg 77%
    08:00 +10°C° 0.1 mm 6 mps 753 mmHg 76%
    09:00 +11°C° 0.1 mm 6 mps 753 mmHg 75%
    10:00 +13°C° 0.1 mm 6 mps 753 mmHg 72%
    11:00 +14°C° 0.1 mm 6 mps 753 mmHg 69%
    12:00 +15°C° 0.1 mm 6 mps 752 mmHg 66%
    13:00 +15°C° 0.3 mm 6 mps 752 mmHg 67%
    14:00 +15°C° 0.3 mm 6 mps 752 mmHg 68%
    15:00 +16°C° 0.3 mm 6 mps 751 mmHg 68%
    16:00 +15°C° 0.4 mm 5 mps 751 mmHg 74%
    17:00 +14°C° 0.4 mm 4 mps 751 mmHg 79%
    18:00 +14°C° 0.4 mm 3 mps 750 mmHg 84%
    19:00 +12°C° 0.1 mm 3 mps 750 mmHg 86%
    20:00 +12°C° 0.1 mm 2 mps 750 mmHg 89%
    21:00 +10°C° 0.1 mm 2 mps 750 mmHg 92%
    22:00 +10°C° 0 mm 2 mps 749 mmHg 92%
    23:00 +10°C° 0 mm 2 mps 749 mmHg 92%

    30 May, Wednesday

    Time Temperature Precipitation Wind Pressure Humidity
    00:00 +10°C° 0 mm 2 mps 749 mmHg 93%
    01:00 +11°C° 0.2 mm 1 mps 749 mmHg 93%
    02:00 +11°C° 0.2 mm 1 mps 748 mmHg 94%
    03:00 +11°C° 0.2 mm 1 mps 748 mmHg 94%
    04:00 +11°C° 0.2 mm 1 mps 748 mmHg 94%
    05:00 +10°C° 0.2 mm 0 mps 748 mmHg 93%
    06:00 +11°C° 0.2 mm 0 mps 747 mmHg 92%
    07:00 +12°C° 1.4 mm 1 mps 748 mmHg 93%
    08:00 +11°C° 1.4 mm 1 mps 748 mmHg 94%
    09:00 +10°C° 1.4 mm 2 mps 748 mmHg 94%
    10:00 +12°C° 0.3 mm 2 mps 748 mmHg 88%
    11:00 +12°C° 0.3 mm 2 mps 748 mmHg 83%
    12:00 +13°C° 0.3 mm 2 mps 748 mmHg 77%
    13:00 +13°C° 0 mm 2 mps 748 mmHg 74%
    14:00 +14°C° 0 mm 2 mps 749 mmHg 70%
    15:00 +13°C° 0 mm 3 mps 749 mmHg 66%
    16:00 +14°C° 0 mm 2 mps 749 mmHg 65%
    17:00 +15°C° 0 mm 2 mps 749 mmHg 64%
    18:00 +15°C° 0 mm 2 mps 749 mmHg 63%
    19:00 +13°C° 0 mm 2 mps 749 mmHg 69%
    20:00 +11°C° 0 mm 1 mps 749 mmHg 76%
    21:00 +9°C° 0 mm 1 mps 749 mmHg 82%
    22:00 +9°C° 0 mm 1 mps 749 mmHg 83%
    23:00 +8°C° 0 mm 1 mps 750 mmHg 85%

    31 May, Thursday

    Time Temperature Precipitation Wind Pressure Humidity
    00:00 +7°C° 0 mm 1 mps 750 mmHg 86%
    01:00 +7°C° 0 mm 1 mps 749 mmHg 87%
    02:00 +6°C° 0 mm 1 mps 749 mmHg 88%
    03:00 +6°C° 0 mm 1 mps 749 mmHg 89%
    04:00 +6°C° 0 mm 0 mps 749 mmHg 85%
    05:00 +8°C° 0 mm 0 mps 749 mmHg 81%
    06:00 +9°C° 0 mm 0 mps 749 mmHg 76%
    07:00 +11°C° 0 mm 0 mps 749 mmHg 69%
    08:00 +13°C° 0 mm 0 mps 748 mmHg 62%
    09:00 +15°C° 0 mm 0 mps 748 mmHg 54%
    10:00 +16°C° 0 mm 0 mps 748 mmHg 51%
    11:00 +16°C° 0 mm 0 mps 748 mmHg 48%
    12:00 +18°C° 0 mm 1 mps 747 mmHg 44%
    13:00 +18°C° 0 mm 1 mps 747 mmHg 44%
    14:00 +18°C° 0 mm 1 mps 747 mmHg 44%
    15:00 +18°C° 0 mm 1 mps 747 mmHg 45%
    16:00 +16°C° 0.2 mm 1 mps 746 mmHg 49%
    17:00 +16°C° 0.2 mm 2 mps 746 mmHg 54%
    18:00 +15°C° 0.2 mm 2 mps 746 mmHg 59%
    19:00 +14°C° 0.1 mm 2 mps 746 mmHg 65%
    20:00 +12°C° 0.1 mm 2 mps 746 mmHg 72%
    21:00 +9°C° 0.1 mm 2 mps 747 mmHg 78%
    22:00 +8°C° 0.1 mm 2 mps 747 mmHg 80%
    23:00 +8°C° 0.1 mm 2 mps 747 mmHg 82%
    Show more